Regional Weather Roundup
Issued by NWS Portland, ME

Current Version | Previous Version | Text Only | Print | Product List | Glossary Off
Versions: 1 2 3 4 5 6 7 8 9 10 11 12 13 14 15 16 17 18 19 20 21 22 23 24 25 26 27 28 29 30 31 32 33 34 35 36 37 38 39 40 41 42 43 44 45 46 47 48 49 50
477 ASUS41 KGYX 191510 RWRGYX WEATHER ROUNDUP FOR MAINE AND NEW HAMPSHIRE NATIONAL WEATHER SERVICE GRAY ME 1100 AM EDT TUE JUN 19 2018 MEZ002-005-006-010-012-015-018-020-021-024-026-027-029-191600- MAINE CITY SKY/WX TMP DP RH WIND PRES REMARKS PORTLAND FAIR 74 51 44 NW17G28 29.74R SANFORD CLOUDY 75 56 51 W10G18 29.75R BAR HARBOR CLOUDY 69 53 56 NW12G24 29.66R WISCASSET FAIR 73 49 42 N9G20 29.72R ROCKLAND FAIR 72 54 53 NW10G20 29.68R FRYEBURG FAIR 72 51 47 N17G25 29.77R LEWISTONAUBURN FAIR 71 50 47 NW14G23 29.75R AUGUSTA FAIR 71 52 50 NW17G26 29.72R WATERVILLE FAIR 66 49 54 N16G28 29.71R BANGOR FAIR 69 51 52 NW20G30 29.69R GREENVILLE N/A 60 47 61 NW20G30 29.71F MILLINOCKET FAIR 67 47 48 NW16G28 29.68S HOULTON CLOUDY 63 48 58 NW16G26 29.63S PRESQUE ISLE CLOUDY 61 47 59 NW15G22 29.66S FRENCHVILLE CLOUDY 59 45 59 NW18G29 29.64S CARIBOU CLOUDY 60 46 59 NW13G23 29.64S $$ NHZ002-005-008-009-011-012-014-191600- NEW HAMPSHIRE CITY SKY/WX TMP DP RH WIND PRES REMARKS PORTSMOUTH PTSUNNY 77 53 43 NW17 29.73R ROCHESTER NOT AVBL NASHUA FAIR 76 55 48 N15G23 29.78R MANCHESTER PTSUNNY 76 53 44 NW14G23 29.77R CONCORD FAIR 73 55 53 NW17G24 29.78R LACONIA FAIR 70 54 56 NW8 29.80R PLYMOUTH FAIR 69 53 56 W13G23 29.81S BERLIN FAIR 64 47 53 NW16G26 29.83S WHITEFIELD FAIR 65 51 60 NW10 29.86R JAFFREY FAIR 73 54 51 NW10G17 29.82R KEENE FAIR 74 51 44 NW14G25 29.83R LEBANON FAIR 70 53 54 NW15G22 29.84S MT WASHINGTON FOG 37 37 100 NW66G76 N/A VSB 1/8 $$ VTZ005-007-008-191600- VERMONT CITY SKY/WX TMP DP RH WIND PRES REMARKS ST JOHNSBURY N/A 63 49 60 MISG 29.85S MONTPELIER CLOUDY 60 52 74 NW12G18 29.93R BURLINGTON PTSUNNY 64 51 62 N14 29.91S $$ MAZ007-012-024-CTZ003-RIZ002-NYZ038-NYZ072-191600- SOUTHERN NEW ENGLAND AND NY CITY SKY/WX TMP DP RH WIND PRES REMARKS BOSTON FAIR 79 58 48 NW13G24 29.74S WORCESTER FAIR 73 56 54 N14 29.80S NANTUCKET PTSUNNY 74 66 76 N15 29.74R PROVIDENCE PTSUNNY 81 58 45 N16G23 29.76S HARTFORD PTSUNNY 80 59 48 N10 29.79S ALBANY FAIR 76 58 53 W13G21 29.86R NEW YORK CITY PTSUNNY 82 67 60 N14 29.78R $$ ANZ081-ANZ082-ANZ150-NHZ014-MEZ023>029-191600- COASTAL MARINE OBSERVATIONS STATION/POSITION TIME TEMP WIND PRES WAVE AIR SEA DIR/SP/G HT/PER (UTC) (F) (DEG/KT/KT) (MB) (FT/S) MOUNT DESERT ROC 1500 61 290/ 20/ 21 1004.2R MATINICUS ROCK 1400 66 320/ 15/ 16 1004.2R ISLE OF SHOALS 1400 69 320/ 14/ 17 1006.1R JEFFREYS LEDGE 1406 56 N/A 2/ 6 $$ .............KEY.............. WCI - WIND CHILL TC - TEMPERATURE IN CELSIUS VSB - VISIBILITY IN MILES HX - HEAT INDEX FAIR- INDICATES FEW OR NO CLOUDS BELOW 12,000 FT, WITH NO SIGNIFICANT WEATHER AND/OR OBSTRUCTIONS TO VISIBILITY.

USA.gov is the U.S. government's official web portal to all federal, state and local government web resources and services.